Regional Weather Roundup
Issued by NWS Midland/Odessa, TX

Home | Current Version | Previous Version | Text Only | Print | Product List | Glossary On
Versions: 1 2 3 4 5 6 7 8 9 10 11 12 13 14 15 16 17 18 19 20 21 22 23 24 25 26 27 28 29 30 31 32 33 34 35 36 37 38 39 40 41 42 43 44 45 46 47 48 49 50
462
ASUS44 KMAF 290801
RWRMAF
MIDLAND AREA WEATHER ROUNDUP
NATIONAL WEATHER SERVICE MIDLAND TX
300 AM CDT FRI JUL 29 2016

...IN SOUTHWEST TEXAS AND SOUTHEAST NEW MEXICO...

CITY           SKY/WX    TMP DP  RH WIND       PRES   REMARKS
ALPINE         CLEAR     70  58  64 S6        30.19F
ANDREWS        FAIR      74  64  69 S7        30.07R
ARTESIA        CLEAR     77  59  53 S9        30.08S
BIG SPRING     PTCLDY    73  69  87 S5        30.05S
CARLSBAD       CLEAR     75  60  59 S8        30.05F
DRYDEN           N/A     74  68  81 NE6       30.01F
FORT STOCKTON  CLEAR     75  63  66 S9        30.05S
GUAD PASS      CLEAR     70  56  61 NE12      30.22S
HOBBS          CLEAR     72  63  73 SW6       30.10S
MARFA          CLEAR     64  55  72 E6        30.18F
MIDLAND AIRPK  PTCLDY    75  67  75 SW3       30.05S
MIDLAND INTL   PTCLDY    76  67  73 S7        30.05S
ODESSA         PTCLDY    76  65  68 S9        30.06S
PECOS          CLOUDY    76  64  65 E8        30.03S
PRESIDIO       FAIR      80  63  55 NE5       30.03F
SEMINOLE       CLEAR     71  62  73 CALM      30.09R
SNYDER           N/A     75  65  72 SW3       30.02S
WINK           CLOUDY    75  66  73 SE3       30.03S
$$
...OTHER STATIONS IN TEXAS...

CITY           SKY/WX    TMP DP  RH WIND       PRES   REMARKS
ABILENE        CLEAR     78  67  68 S9        30.00R
AMARILLO       CLEAR     74  61  63 S10       30.08S
AUSTIN         PTCLDY    74  72  93 W3        29.99S
BROWNSVILLE    PTCLDY    81  76  84 SE8       29.96F
CORPUS CHRISTI PTCLDY    79  77  94 S6        29.96F
DALLAS FTW     PTCLDY    79  70  74 S8        29.94F
DEL RIO        PTCLDY    74  71  91 E7        29.99S
EL PASO        CLEAR     83  54  36 SE9       30.06S
HOUSTON INT    CLOUDY    77  75  93 CALM      29.98F
LUBBOCK        CLEAR     76  61  59 SW10      30.06F
SAN ANGELO     CLEAR     76  66  71 S9        30.00F
SAN ANTONIO    MOCLDY    74  68  81 NW3       30.00F
WACO           PTCLDY    78  71  79 S13       29.98S
WICHITA FALLS  NOT AVBL
$$
...OTHER LOCATIONS IN NEW MEXICO...

CITY           SKY/WX    TMP DP  RH WIND       PRES   REMARKS
ALAMAGORDO     CLOUDY    82  54  36 SE18G30   30.09F
ALBUQUERQUE    CLEAR     76  46  34 SE6       30.15R
CANNON AFB     CLEAR     72  60  67 S7        30.12S
CLOVIS         CLEAR     70  55  60 S9        30.12S
HOLLOMAN AFB   CLEAR     79  54  42 S12       30.08R
ROSWELL        CLEAR     74  56  53 SW7       30.08R
RUIDOSO          N/A     66  50  55 SE6       30.34S
SANTA FE       NOT AVBL
TRUTH OR CONSE CLEAR     78  52  40 SW6       30.13R
TUCUMCARI      CLOUDY    79  57  46 SW9       30.08R
$$




USA.gov is the U.S. government's official web portal to all federal, state and local government web resources and services.